Flag for Greece Weather past 2 weeks in Kalamata, Greece

Now
77 °F

Partly sunny.


Feels Like: 79 °F
Forecast: 63 / 85 °F
Wind: No wind

Location: Kalamata Airport

Current Time: Aug 30, 2014 at 9:30:32 PM

Latest Report: Aug 30, 2014 at 8:20 PM


Visibility: N/A

Pressure: 29.92 "Hg

Humidity: 74%

Dew point: 68 °F

Location of KalamataLocation

Historic Weather in Kalamata — Graph

°F

Kalamata temperature yesterday

Maximum temperature yesterday: 90 °F (at 1:50 PM)
Minimum temperature yesterday: 64 °F (at 5:50 AM)
Average temperature yesterday: 79 °F

Past Weeks' High & Low Weather Summary

 TemperatureHumidityPressure
High100 °F (Aug 23, 3:50 PM)88% (Aug 19, 3:50 AM)30.01 "Hg (Aug 19, 3:50 AM)
Low61 °F (Aug 20, 6:50 AM)10% (Aug 25, 2:50 PM)29.74 "Hg (Aug 28, 4:50 AM)
Average80 °F53%29.88 "Hg
* Reported Aug 15 7:20 PM — Aug 30 7:50 PM, Kalamata, Weather by CustomWeather, © 2014

Note: Actual official high and low records may vary slightly from our data, if they occured in-between our weather recording intervals... More about our weather records

Advertising

Kalamata weather history for previous 24 hours

 ConditionsComfort  
Time TempWeatherWind HumidityBarometerVisibility
7:50 PM
Aug 30
79 °FPartly sunny.No wind65%29.92 "HgN/A
7:20 PM81 °FPartly sunny.5 mph66%29.92 "HgN/A
6:50 PM81 °FPartly sunny.8 mph66%29.89 "HgN/A
6:20 PM82 °FScattered clouds.6 mph66%29.89 "HgN/A
5:50 PM84 °FScattered clouds.5 mph62%29.89 "HgN/A
5:20 PM82 °FScattered clouds.6 mph62%29.89 "Hg5 mi
4:50 PM82 °FPassing clouds.No wind66%29.89 "Hg5 mi
4:20 PM79 °FLight rain. Passing clouds.No wind79%29.89 "Hg5 mi
3:50 PM84 °FScattered clouds.9 mph58%29.92 "HgN/A
2:50 PM88 °FScattered clouds.10 mph52%29.92 "HgN/A
2:20 PM86 °FPassing clouds.12 mph59%29.92 "HgN/A
1:50 PM86 °FScattered clouds.10 mph55%29.92 "HgN/A
1:20 PM86 °FPassing clouds.9 mph52%29.95 "HgN/A
12:50 PM86 °FPassing clouds.7 mph49%29.95 "HgN/A
12:20 PM84 °FPassing clouds.No wind48%29.95 "HgN/A
11:50 AM84 °FPassing clouds.7 mph45%29.95 "HgN/A
11:20 AM86 °FPassing clouds.No wind49%29.95 "HgN/A
10:50 AM86 °FPassing clouds.No wind46%29.95 "HgN/A
10:20 AM82 °FPassing clouds.No wind51%29.95 "HgN/A
9:50 AM84 °FSunny.No wind45%29.95 "Hg10 mi
9:20 AM81 °FSunny.No wind51%29.95 "Hg10 mi
8:50 AM75 °FSunny.No wind65%29.95 "Hg10 mi
8:20 AM72 °FSunny.No wind69%29.95 "Hg10 mi
7:50 AM70 °FClear.No wind73%29.95 "Hg10 mi
7:20 AM68 °FClear.No wind78%29.95 "Hg10 mi
6:50 AM70 °FPassing clouds.No wind78%29.92 "HgN/A
6:20 AM70 °FClear.No wind73%29.92 "Hg10 mi
5:50 AM70 °FPassing clouds.No wind78%29.92 "HgN/A
5:20 AM70 °FPassing clouds.No wind83%29.92 "HgN/A
4:50 AM70 °FMild.3 mph83%29.92 "HgN/A
4:20 AM70 °FMild.3 mph83%29.92 "HgN/A
3:50 AM72 °FMild.5 mph78%29.92 "HgN/A
3:20 AM72 °FMild.3 mph78%29.92 "HgN/A
2:50 AM72 °FMild.3 mph83%29.92 "HgN/A
1:50 AM72 °FMild.2 mph88%29.95 "HgN/A
12:50 AM73 °FMild.1 mph83%29.95 "HgN/A
12:20 AM77 °FWarm.No wind79%29.95 "HgN/A
11:50 PM
Aug 29
79 °FPassing clouds.No wind70%29.92 "HgN/A
9:50 PM81 °FPassing clouds.No wind70%29.92 "HgN/A
9:20 PM79 °FPassing clouds.No wind70%29.92 "HgN/A
Weather by CustomWeather, © 2014

See weather overviewHow to use our weather pages